| time (UTC) | temp C | wind direction | speed KPH | gust KPH | rain 1hr cm | rain 24hr cm | rain mn cm | humidity % | barometer mb |
| 20260507224514 | 10 | 283 | 1.6 | 3.2 | 0.00 | 3.43 | 0.00 | 92 | 1015.6 |
| 20260507223014 | 10 | 284 | 0.0 | 1.6 | 0.00 | 3.43 | 0.00 | 91 | 1015.6 |
| 20260507220011 | 10 | 284 | 0.0 | 1.6 | 0.00 | 3.43 | 0.00 | 91 | 1015.2 |
| 20260507214512 | 10 | 283 | 0.0 | 1.6 | 0.00 | 3.43 | 3.43 | 91 | 1014.9 |
| 20260507213026 | 11 | 283 | 0.0 | 6.4 | 0.00 | 3.43 | 3.43 | 91 | 1014.9 |
| 20260507211517 | 10 | 276 | 0.0 | 1.6 | 0.00 | 3.43 | 3.43 | 91 | 1015.1 |
| 20260507210017 | 11 | 276 | 0.0 | 1.6 | 0.00 | 3.43 | 3.43 | 90 | 1015.1 |
| 20260507204510 | 11 | 276 | 0.0 | 1.6 | 0.00 | 3.43 | 3.43 | 90 | 1015.0 |
| 20260507203018 | 11 | 276 | 0.0 | 3.2 | 0.00 | 3.43 | 3.43 | 90 | 1014.9 |
| 20260507201517 | 12 | 293 | 0.0 | 3.2 | 0.00 | 3.43 | 3.43 | 89 | 1014.9 |
| 20260507200017 | 12 | 295 | 0.0 | 6.4 | 0.00 | 3.43 | 3.43 | 89 | 1014.8 |
| 20260507194527 | 12 | 272 | 0.0 | 3.2 | 0.00 | 3.43 | 3.43 | 89 | 1014.7 |
| 20260507191520 | 13 | 291 | 1.6 | 6.4 | 0.00 | 3.43 | 3.43 | 88 | 1014.6 |
| 20260507190019 | 13 | 321 | 0.0 | 4.8 | 0.00 | 3.43 | 3.43 | 87 | 1014.6 |
| 20260507184523 | 13 | 300 | 1.6 | 6.4 | 0.00 | 3.43 | 3.43 | 87 | 1014.6 |
| 20260507181510 | 14 | 302 | 3.2 | 6.4 | 0.00 | 3.43 | 3.43 | 86 | 1014.5 |
| 20260507180021 | 15 | 320 | 1.6 | 4.8 | 0.00 | 3.43 | 3.43 | 84 | 1014.6 |
| 20260507174504 | 16 | 273 | 0.0 | 3.2 | 0.00 | 3.43 | 3.43 | 79 | 1014.6 |
| 20260507173011 | 16 | 150 | 0.0 | 9.7 | 0.00 | 3.43 | 3.43 | 75 | 1014.5 |
| 20260507171506 | 17 | 111 | 1.6 | 8.0 | 0.00 | 3.43 | 3.43 | 74 | 1014.6 |
| 20260507170014 | 17 | 105 | 3.2 | 9.7 | 0.00 | 3.43 | 3.43 | 74 | 1014.3 |
| 20260507164517 | 17 | 143 | 3.2 | 11.3 | 0.00 | 3.43 | 3.43 | 74 | 1014.2 |
| 20260507163003 | 17 | 135 | 0.0 | 9.7 | 0.00 | 3.43 | 3.43 | 74 | 1014.3 |
| 20260507161507 | 17 | 271 | 1.6 | 11.3 | 0.00 | 3.43 | 3.43 | 73 | 1014.2 |
| 20260507160010 | 18 | 158 | 1.6 | 9.7 | 0.00 | 3.43 | 3.43 | 74 | 1014.2 |
| 20260507154511 | 18 | 46 | 0.0 | 8.0 | 0.00 | 3.43 | 3.43 | 74 | 1014.2 |
| 20260507151506 | 18 | 279 | 6.4 | 14.5 | 0.00 | 3.43 | 3.43 | 70 | 1014.4 |
| 20260507150006 | 17 | 91 | 6.4 | 14.5 | 0.00 | 3.43 | 3.43 | 73 | 1014.2 |
| 20260507144510 | 17 | 236 | 3.2 | 12.9 | 0.00 | 3.43 | 3.43 | 74 | 1014.5 |
| 20260507141520 | 17 | 77 | 0.0 | 3.2 | 0.00 | 3.43 | 3.43 | 81 | 1014.6 |
| 20260507140021 | 17 | 100 | 3.2 | 8.0 | 0.00 | 3.43 | 3.43 | 79 | 1014.5 |
| 20260507134507 | 17 | 83 | 3.2 | 17.7 | 0.00 | 3.43 | 3.43 | 79 | 1014.6 |
| 20260507130023 | 17 | 84 | 0.0 | 4.8 | 0.00 | 3.43 | 3.43 | 81 | 1014.6 |
| 20260507124527 | 17 | 248 | 1.6 | 3.2 | 0.00 | 3.43 | 3.43 | 85 | 1014.7 |
| 20260507121512 | 15 | 246 | 3.2 | 6.4 | 0.48 | 3.43 | 3.43 | 90 | 1014.7 |
| 20260507114521 | 13 | 265 | 1.6 | 4.8 | 1.07 | 3.43 | 3.43 | 91 | 1014.9 |
| 20260507113030 | 13 | 284 | 0.0 | 4.8 | 1.30 | 3.40 | 3.40 | 91 | 1015.0 |
| 20260507111511 | 13 | 283 | 1.6 | 4.8 | 0.86 | 2.95 | 2.95 | 90 | 1015.1 |
| 20260507110016 | 13 | 267 | 0.0 | 3.2 | 0.76 | 2.74 | 2.74 | 90 | 1015.1 |
| 20260507104520 | 13 | 235 | 0.0 | 1.6 | 0.41 | 2.36 | 2.36 | 90 | 1015.2 |
| 20260507103028 | 13 | 226 | 1.6 | 3.2 | 0.25 | 2.11 | 2.11 | 90 | 1015.1 |
| 20260507101534 | 13 | 265 | 0.0 | 3.2 | 0.33 | 2.08 | 2.08 | 90 | 1015.0 |
| 20260507100017 | 12 | 255 | 0.0 | 3.2 | 0.43 | 1.98 | 1.98 | 90 | 1015.2 |
| 20260507094523 | 12 | 271 | 0.0 | 11.3 | 0.71 | 1.96 | 1.96 | 90 | 1015.3 |
| 20260507093022 | 12 | 236 | 0.0 | 3.2 | 0.81 | 1.85 | 1.85 | 90 | 1015.2 |
| 20260507091506 | 11 | 295 | 1.6 | 4.8 | 1.22 | 1.75 | 1.75 | 89 | 1015.2 |
| 20260507090012 | 11 | 297 | 0.0 | 6.4 | 1.40 | 1.55 | 1.55 | 88 | 1015.2 |
| 20260507084514 | 11 | 274 | 3.2 | 12.9 | 1.22 | 1.24 | 1.24 | 87 | 1014.9 |
| 20260507081503 | 13 | 77 | 0.0 | 4.8 | 0.53 | 0.53 | 0.53 | 87 | 1014.3 |
| 20260507080005 | 14 | 224 | 0.0 | 1.6 | 0.15 | 0.15 | 0.15 | 86 | 1013.9 |
| 20260507074511 | 15 | 224 | 0.0 | 1.6 | 0.03 | 0.03 | 0.03 | 84 | 1013.9 |
| 20260507073017 | 16 | 25 | 0.0 | 0.0 | 0.00 | 0.00 | 0.00 | 79 | 1013.9 |
| 20260507071519 | 16 | 25 | 0.0 | 4.8 | 0.00 | 0.00 | 0.00 | 75 | 1013.8 |
| 20260507070010 | 16 | 116 | 1.6 | 8.0 | 0.00 | 0.00 | 0.00 | 74 | 1013.7 |
| 20260507064514 | 16 | 139 | 0.0 | 6.4 | 0.00 | 0.10 | 0.00 | 74 | 1013.5 |
| 20260507063014 | 16 | 88 | 4.8 | 9.7 | 0.00 | 0.36 | 0.00 | 72 | 1013.4 |
| 20260507061522 | 17 | 81 | 1.6 | 3.2 | 0.00 | 0.38 | 0.00 | 73 | 1013.4 |
| 20260507060021 | 16 | 110 | 0.0 | 4.8 | 0.00 | 0.38 | 0.00 | 79 | 1013.4 |
| 20260507054505 | 15 | 124 | 0.0 | 1.6 | 0.00 | 0.38 | 0.00 | 85 | 1013.3 |
| 20260507053010 | 14 | 124 | 0.0 | 1.6 | 0.00 | 0.38 | 0.00 | 87 | 1013.2 |
| 20260507050027 | 13 | 253 | 0.0 | 0.0 | 0.00 | 0.38 | 0.00 | 89 | 1012.9 |
| 20260507044524 | 13 | 252 | 0.0 | 0.0 | 0.00 | 0.38 | 0.00 | 89 | 1012.8 |
| 20260507043006 | 13 | 255 | 0.0 | 1.6 | 0.00 | 0.38 | 0.00 | 89 | 1012.6 |
| 20260507041513 | 13 | 252 | 0.0 | 0.0 | 0.00 | 0.41 | 0.00 | 89 | 1012.5 |
| 20260507040020 | 13 | 252 | 0.0 | 0.0 | 0.00 | 0.41 | 0.00 | 89 | 1012.4 |
| 20260507034521 | 13 | 252 | 0.0 | 0.0 | 0.00 | 0.41 | 0.00 | 89 | 1012.4 |
| 20260507033030 | 13 | 252 | 0.0 | 1.6 | 0.00 | 0.41 | 0.00 | 88 | 1012.4 |
| 20260507031537 | 13 | 252 | 0.0 | 1.6 | 0.00 | 0.41 | 0.00 | 88 | 1012.3 |
| 20260507030017 | 13 | 251 | 0.0 | 1.6 | 0.00 | 0.41 | 0.00 | 88 | 1012.4 |
| 20260507024522 | 13 | 113 | 0.0 | 0.0 | 0.00 | 0.51 | 0.00 | 87 | 1012.3 |
| 20260507023023 | 13 | 113 | 0.0 | 0.0 | 0.00 | 0.53 | 0.00 | 87 | 1012.3 |
| 20260507021525 | 14 | 113 | 0.0 | 0.0 | 0.00 | 0.56 | 0.00 | 85 | 1012.3 |
| 20260507020026 | 14 | 113 | 0.0 | 0.0 | 0.00 | 0.81 | 0.00 | 84 | 1012.2 |
| 20260507014521 | 15 | 113 | 0.0 | 4.8 | 0.00 | 1.07 | 0.00 | 83 | 1012.2 |
| 20260507013032 | 15 | 76 | 1.6 | 11.3 | 0.00 | 1.32 | 0.00 | 82 | 1012.1 |
| 20260507011531 | 15 | 75 | 4.8 | 9.7 | 0.00 | 1.63 | 0.00 | 83 | 1012.2 |
| 20260507010031 | 15 | 77 | 4.8 | 14.5 | 0.00 | 2.18 | 0.00 | 82 | 1012.5 |
| 20260507004526 | 15 | 77 | 6.4 | 12.9 | 0.00 | 2.72 | 0.00 | 82 | 1012.3 |
| 20260507003019 | 15 | 65 | 4.8 | 14.5 | 0.00 | 2.72 | 0.00 | 82 | 1012.3 |
| 20260507001503 | 15 | 63 | 6.4 | 12.9 | 0.00 | 2.72 | 0.00 | 81 | 1012.2 |
| 20260507000006 | 15 | 58 | 3.2 | 9.7 | 0.00 | 2.72 | 0.00 | 80 | 1012.2 |
| 20260506234509 | 15 | 72 | 4.8 | 11.3 | 0.00 | 2.72 | 0.00 | 79 | 1012.2 |
| 20260506233016 | 15 | 103 | 4.8 | 11.3 | 0.00 | 2.72 | 0.00 | 79 | 1012.4 |
| 20260506231522 | 15 | 70 | 4.8 | 14.5 | 0.00 | 2.72 | 0.00 | 79 | 1012.3 |
| 20260506230007 | 15 | 77 | 6.4 | 17.7 | 0.00 | 2.72 | 0.00 | 79 | 1012.2 |